Wind_Speed
51 50 49 48 47 47 46 45 45 44 42 42 42 41 41 41 41 41 41 41 41 42 42 43 43 44 44 45 45 46 46 45 45 45 45 46 46 46
51 50 49 48 47 47 46 46 45 44 43 42 42 42 41 42 42 42 42 42 42 43 43 43 43 44 44 45 45 46 46 45 45 45 46 46 45 46
51 50 49 48 48 47 47 47 46 45 44 43 43 42 42 42 42 42 42 42 43 43 43 43 44 44 45 44 45 46 46 45 45 45 45 45 45 46
51 49 48 48 48 47 47 46 45 45 44 44 43 42 42 42 41 42 42 42 42 43 43 44 44 44 45 44 45 45 45 45 44 44 44 45 46 46
51 49 48 48 47 46 46 45 45 44 44 44 43 42 42 41 41 41 41 42 42 43 43 44 44 45 44 44 44 45 45 44 44 44 44 45 46 47
51 50 49 48 47 46 45 44 45 44 44 44 44 42 42 41 41 41 41 42 42 43 43 43 44 45 44 44 44 44 44 44 44 44 45 46 46 47
50 50 50 50 48 47 47 45 45 45 45 44 43 43 41 40 40 40 40 41 42 43 43 43 44 44 44 44 43 43 43 44 44 45 45 46 46 47
49 50 49 50 49 48 47 46 45 45 45 45 44 44 42 41 41 41 40 41 42 42 43 43 45 45 44 44 43 43 44 44 45 45 45 46 46 48
48 49 49 49 49 47 46 46 45 45 45 44 44 43 42 42 42 42 42 42 41 42 42 43 44 45 44 43 42 43 44 44 45 45 45 46 47 48
46 47 49 49 48 47 46 45 45 44 44 43 43 42 42 42 43 43 44 43 42 42 42 43 44 44 43 42 43 43 44 44 45 45 46 47 47 48
44 46 46 47 47 47 45 45 44 43 43 43 42 42 42 43 43 43 43 43 43 43 43 44 44 44 42 42 42 42 43 45 45 45 46 46 48 48
44 44 44 45 46 46 45 44 43 42 42 42 42 42 42 43 42 42 42 42 42 42 42 43 42 43 41 41 41 42 44 44 45 46 45 46 48 47
45 45 44 45 44 44 44 43 42 42 42 41 41 41 41 41 41 41 41 41 40 41 41 41 41 40 40 39 40 41 43 44 45 45 45 46 46 44
44 44 44 44 44 43 43 42 42 42 42 41 41 41 40 40 40 40 40 39 39 39 40 40 40 40 39 39 39 41 43 44 44 44 44 44 42 41
43 43 43 43 43 43 42 42 42 42 43 42 41 40 40 39 39 39 39 38 38 38 38 39 39 39 39 39 39 40 42 42 42 42 42 41 39 39
42 41 42 42 43 42 42 41 41 42 42 41 40 39 40 39 38 39 39 38 38 38 37 38 38 37 37 38 39 40 40 41 41 40 39 38 38 38
42 42 41 42 41 41 41 41 40 40 39 39 39 39 39 38 38 38 38 37 37 36 36 37 36 36 36 37 38 39 40 40 38 37 37 37 37 38
42 41 40 41 41 41 40 40 39 38 38 38 38 38 38 37 36 36 35 35 36 35 35 35 35 36 36 36 37 38 38 37 35 35 36 36 36 37
42 40 40 40 39 39 39 39 38 37 36 36 35 35 35 34 34 33 33 32 33 34 34 34 34 35 35 35 36 36 35 34 34 34 34 35 35 36
42 40 39 39 39 38 38 37 37 36 36 34 34 33 33 32 32 32 32 32 32 32 33 33 33 34 34 35 35 34 33 32 32 33 34 34 35 35
42 41 39 38 38 37 36 36 35 34 34 33 32 32 31 31 31 31 32 31 31 32 31 32 33 33 33 33 33 32 31 31 31 32 33 34 34 34
40 40 39 38 37 36 35 35 34 33 33 32 32 31 30 30 30 30 30 30 30 30 30 31 31 31 31 30 30 30 30 30 31 32 32 32 32 32
39 39 39 37 35 34 34 33 32 32 31 31 31 30 29 28 28 28 28 28 28 28 29 29 29 29 29 28 29 29 29 29 30 30 30 31 31 31
Wind_Direction
247 249 250 251 253 255 256 257 260 263 264 266 269 271 274 277 280 283 286 290 293 295 297 300 304 307 309 311 312 313 315 315 315 316 317 318 319 320
247 249 250 251 252 255 256 257 259 262 265 266 268 271 274 277 279 283 286 290 292 294 297 300 303 305 308 310 311 312 314 314 314 315 316 318 319 320
247 248 250 250 252 255 256 257 258 261 264 265 267 270 272 275 279 283 287 289 291 293 296 298 302 304 307 309 310 312 313 314 314 315 316 317 318 319
247 248 250 250 251 253 256 257 258 260 263 265 267 269 272 274 278 283 286 288 291 293 295 298 301 304 306 307 309 311 312 313 314 315 316 317 318 319
246 248 249 250 251 252 255 256 257 260 261 264 267 270 272 275 278 282 285 288 290 293 295 298 301 303 305 307 308 310 312 312 313 314 315 317 318 319
246 247 248 249 250 251 253 255 256 259 261 264 267 269 272 275 278 281 284 287 290 293 295 298 301 303 305 307 308 310 311 312 312 314 315 316 318 319
245 247 247 248 248 250 252 254 256 258 260 263 266 269 272 274 276 280 283 286 288 291 294 297 300 303 304 306 308 310 311 312 313 314 315 316 318 319
244 246 246 247 248 250 252 253 256 258 261 263 266 269 271 272 274 278 281 285 287 290 293 296 299 302 303 305 306 308 311 312 312 313 314 316 318 319
245 245 244 247 249 251 252 254 256 258 261 263 265 268 270 272 274 277 280 284 287 289 292 295 299 300 302 303 305 308 310 311 312 313 314 316 318 319
244 245 245 247 249 251 252 253 255 257 260 263 266 268 269 272 275 278 280 283 287 289 292 295 297 299 301 302 304 307 309 311 312 313 314 316 318 319
243 244 245 247 248 250 251 253 255 257 258 261 264 267 269 271 273 276 280 283 287 289 291 294 297 298 299 301 303 306 309 311 312 313 315 316 317 318
243 244 245 248 249 250 251 252 254 256 258 261 264 266 267 270 272 275 279 283 287 290 292 294 296 298 298 300 302 305 309 311 312 313 315 316 317 317
243 244 246 248 249 250 250 251 253 255 257 260 263 265 267 270 272 274 278 282 287 290 291 293 295 297 298 300 302 305 308 310 311 313 314 315 317 318
244 244 245 246 249 250 249 250 253 255 257 259 261 265 268 270 272 275 279 282 286 289 291 292 295 297 299 300 303 306 308 310 311 312 313 316 318 319
245 244 245 246 249 250 250 251 253 255 257 258 262 266 268 269 272 276 279 282 284 287 289 292 295 297 298 300 303 305 308 310 311 313 314 316 318 319
245 245 245 246 249 250 250 252 256 257 258 259 262 264 267 269 272 276 278 280 283 285 288 291 293 296 298 299 302 305 308 310 312 313 314 316 318 320
245 245 247 247 249 250 252 254 256 257 258 259 261 263 265 268 272 276 277 279 282 285 289 291 293 296 298 300 303 306 308 310 311 313 315 316 318 319
244 245 247 248 248 250 252 253 255 257 258 259 261 263 265 268 271 274 277 279 282 284 288 292 294 296 297 300 303 305 308 310 311 312 314 315 317 319
243 244 246 247 248 250 251 252 254 255 257 258 261 262 264 267 271 274 276 280 283 285 287 290 294 297 298 299 302 306 308 309 311 312 313 315 316 318
244 245 245 246 246 249 250 250 252 255 256 258 260 261 264 267 270 273 276 279 283 285 287 291 294 297 298 299 302 304 306 309 312 312 314 316 316 318
244 245 245 245 246 247 248 249 250 252 255 257 258 261 264 266 268 271 276 279 282 284 287 291 295 296 297 299 301 303 306 309 311 313 314 316 317 318
242 242 242 242 244 245 246 248 249 250 252 254 256 259 261 264 267 271 276 280 283 284 287 291 295 296 297 299 301 302 305 308 311 314 316 317 318 319
239 239 240 242 243 244 245 246 247 249 251 253 255 258 260 262 268 273 277 279 282 285 288 291 293 295 297 299 300 302 305 308 311 314 317 319 319 320
Height
5679 5683 5687 5690 5694 5697 5699 5702 5704 5706 5708 5709 5709 5709 5708 5708 5707 5706 5704 5702 5699 5696 5693 5689 5685 5680 5675 5669 5663 5658 5651 5645 5639 5633 5626 5619 5612 5605
5667 5671 5675 5679 5682 5685 5688 5691 5693 5695 5697 5699 5699 5699 5698 5698 5697 5696 5694 5692 5690 5687 5683 5679 5675 5671 5666 5660 5655 5649 5642 5636 5630 5624 5617 5611 5604 5597
5655 5659 5663 5668 5671 5674 5677 5679 5682 5684 5686 5688 5689 5689 5688 5688 5687 5686 5684 5682 5680 5677 5673 5670 5666 5661 5656 5651 5645 5640 5634 5627 5621 5615 5608 5602 5595 5589
5643 5647 5652 5655 5659 5663 5666 5668 5671 5673 5675 5677 5678 5678 5678 5678 5677 5676 5675 5673 5670 5667 5664 5660 5656 5652 5647 5642 5636 5630 5625 5619 5613 5606 5600 5594 5587 5580
5631 5636 5640 5644 5648 5651 5654 5657 5660 5662 5663 5665 5667 5668 5668 5668 5667 5666 5665 5663 5660 5657 5654 5651 5646 5642 5637 5633 5627 5621 5616 5610 5604 5598 5592 5585 5578 5571
5619 5624 5628 5632 5636 5639 5642 5646 5648 5650 5652 5654 5655 5657 5657 5657 5657 5656 5654 5652 5650 5647 5644 5641 5637 5632 5628 5623 5618 5613 5607 5601 5595 5589 5583 5576 5569 5562
5606 5611 5616 5620 5624 5627 5630 5634 5636 5638 5641 5643 5644 5645 5646 5647 5647 5646 5644 5642 5640 5638 5635 5632 5628 5623 5619 5614 5608 5603 5598 5592 5586 5580 5574 5568 5561 5553
5594 5599 5604 5608 5612 5615 5618 5622 5625 5627 5630 5632 5634 5635 5636 5636 5636 5635 5633 5632 5631 5629 5625 5622 5618 5614 5609 5604 5599 5594 5589 5583 5577 5571 5565 5559 5552 5544
5582 5587 5591 5596 5599 5603 5606 5610 5613 5616 5619 5621 5622 5624 5625 5625 5625 5624 5623 5621 5620 5618 5615 5612 5608 5604 5600 5595 5590 5585 5580 5574 5568 5562 5556 5550 5543 5536
5570 5575 5580 5584 5588 5592 5595 5598 5602 5605 5608 5610 5612 5613 5613 5613 5613 5613 5612 5611 5610 5608 5605 5602 5598 5594 5590 5586 5581 5576 5571 5565 5559 5553 5547 5540 5533 5526
5559 5564 5568 5573 5577 5580 5584 5588 5591 5594 5596 5598 5600 5601 5602 5602 5603 5602 5602 5601 5599 5597 5595 5592 5588 5584 5580 5576 5572 5567 5562 5556 5550 5544 5538 5531 5524 5517
5548 5553 5557 5561 5565 5568 5572 5576 5580 5583 5585 5587 5589 5591 5591 5592 5592 5592 5591 5590 5589 5587 5585 5582 5578 5574 5571 5567 5562 5557 5552 5547 5541 5535 5528 5522 5515 5507
5537 5542 5547 5551 5554 5558 5561 5565 5569 5571 5574 5576 5578 5580 5581 5581 5582 5582 5581 5580 5578 5577 5575 5572 5568 5564 5561 5557 5553 5548 5543 5538 5532 5525 5519 5512 5505 5499
5526 5531 5536 5539 5543 5547 5550 5554 5557 5559 5562 5565 5567 5569 5570 5571 5571 5571 5570 5569 5568 5567 5564 5562 5559 5555 5552 5548 5544 5539 5534 5528 5522 5516 5510 5503 5497 5490
5514 5520 5524 5528 5531 5535 5539 5542 5545 5548 5551 5554 5556 5558 5560 5560 5561 5560 5560 5559 5558 5556 5554 5552 5549 5546 5542 5538 5534 5530 5525 5519 5513 5507 5501 5495 5489 5483
5502 5508 5512 5516 5520 5525 5528 5531 5534 5537 5540 5542 5545 5547 5549 5549 5550 5550 5550 5549 5548 5547 5545 5543 5540 5536 5533 5529 5525 5520 5515 5510 5505 5498 5493 5487 5482 5475
5492 5497 5501 5505 5509 5514 5517 5521 5524 5527 5529 5531 5534 5536 5538 5539 5539 5539 5539 5539 5538 5537 5535 5533 5530 5527 5523 5520 5516 5511 5506 5501 5496 5491 5486 5480 5474 5469
5481 5486 5491 5495 5500 5503 5507 5510 5514 5516 5519 5521 5523 5526 5527 5528 5529 5529 5529 5529 5528 5527 5526 5524 5521 5518 5514 5510 5507 5502 5498 5493 5488 5484 5479 5473 5468 5462
5471 5476 5481 5485 5489 5493 5497 5500 5503 5506 5509 5511 5513 5515 5517 5518 5519 5519 5520 5519 5519 5518 5516 5514 5512 5509 5505 5502 5498 5494 5490 5485 5481 5476 5472 5466 5461 5455
5460 5465 5470 5474 5479 5483 5486 5490 5493 5496 5499 5502 5504 5505 5507 5508 5509 5510 5510 5510 5509 5508 5507 5505 5503 5500 5497 5494 5490 5486 5482 5478 5474 5469 5465 5459 5454 5448
5450 5455 5460 5464 5469 5473 5476 5480 5484 5487 5490 5492 5494 5496 5498 5499 5500 5501 5501 5501 5500 5499 5498 5496 5494 5491 5488 5485 5482 5479 5475 5472 5468 5463 5458 5453 5447 5442
5439 5444 5449 5454 5459 5463 5467 5470 5474 5477 5480 5483 5485 5487 5489 5491 5491 5492 5492 5492 5492 5491 5489 5487 5485 5482 5480 5477 5474 5472 5468 5465 5461 5456 5451 5447 5442 5436
5428 5434 5439 5444 5449 5453 5457 5461 5465 5468 5471 5474 5476 5479 5480 5482 5483 5483 5484 5484 5483 5482 5481 5479 5477 5475 5472 5470 5468 5465 5461 5458 5454 5449 5445 5440 5436 5430